Cloud_Cover
0 0 0 0 0 0 0 0 0 0 0 0 0 0 0 1 4 4 1 5 31 49 26 12 9 9 57 52 27 49 64 49 40 100 100 100 100 95 99 76 40 68 99
0 0 0 0 0 0 0 0 0 5 5 5 5 4 5 5 5 5 5 10 65 99 100 92 100 98 91 68 40 36 22 9 5 14 98 100 100 100 100 100 100 57 28
1 2 1 0 0 0 3 5 5 5 5 12 6 13 6 5 5 37 73 95 96 94 77 64 75 77 88 75 78 60 70 30 16 14 42 59 92 100 86 79 100 100 100
0 0 0 1 3 5 5 29 26 46 88 100 100 96 99 100 100 88 66 78 100 97 100 100 100 100 100 100 95 91 80 88 100 100 100 100 100 100 100 100 98 94 85
2 1 0 0 2 5 61 91 100 100 100 100 100 100 100 100 100 99 63 99 100 100 100 100 100 100 100 95 99 100 100 100 100 100 100 100 100 100 100 100 100 100 97
0 0 0 5 5 54 69 100 100 100 100 100 100 98 100 100 99 100 98 100 100 100 100 100 100 100 100 100 100 98 95 100 100 100 100 100 100 100 100 100 100 100 73
4 7 59 88 95 88 100 100 100 100 100 100 98 100 100 100 99 94 69 55 48 44 35 41 65 97 93 74 51 50 28 12 29 84 100 100 100 76 96 99 89 80 36
5 14 42 76 98 100 100 100 100 100 98 100 100 100 100 100 100 100 100 98 51 74 20 24 5 5 5 67 65 53 72 54 43 48 11 5 5 5 98 98 100 100 87
5 10 52 100 100 100 100 100 100 100 91 99 100 100 100 100 100 83 18 34 54 42 14 13 22 15 58 74 95 85 12 5 5 5 5 7 65 97 100 100 100 100 100
78 23 66 96 100 100 100 100 100 100 100 100 95 92 80 85 100 95 64 5 5 5 63 27 5 5 5 72 94 89 100 100 100 83 38 56 100 65 24 100 100 100 100
54 72 79 70 68 88 88 97 63 69 83 78 57 42 51 30 14 14 0 0 1 5 5 5 5 5 5 68 93 100 100 98 92 100 96 62 12 70 44 92 95 100 100
5 62 72 81 86 6 5 5 4 1 0 0 0 0 0 0 0 0 0 0 5 5 5 5 5 6 56 92 100 99 100 100 100 100 94 33 100 65 95 100 100 100 100
48 85 63 6 5 5 0 0 0 0 0 0 0 0 0 0 0 0 0 0 5 5 5 6 91 75 99 100 100 100 79 93 84 100 50 74 89 98 100 100 100 100 100
5 5 5 5 1 0 0 0 0 0 0 0 0 0 0 0 0 0 1 4 5 5 5 57 100 95 83 100 29 5 81 99 100 90 94 78 75 100 100 100 100 100 100
5 2 0 0 0 0 0 0 0 0 0 0 0 0 0 2 0 1 5 5 29 82 100 100 97 90 57 5 5 39 83 100 88 89 91 98 92 100 100 100 100 100 100
0 0 0 0 0 0 0 0 0 0 0 0 0 0 0 3 5 5 5 5 83 100 100 99 75 95 5 29 66 85 96 100 100 100 94 99 100 100 100 100 100 100 100
0 0 0 0 0 0 0 2 5 0 0 0 0 4 5 5 5 5 42 85 100 100 97 6 75 94 49 100 83 66 89 100 100 100 100 100 100 100 100 100 99 100 100
0 0 0 0 0 0 1 3 2 5 5 4 0 4 5 12 84 96 100 100 99 86 59 81 99 89 100 99 68 95 90 98 100 98 100 100 100 100 100 100 100 100 100
0 0 0 0 3 3 4 5 5 5 5 5 5 5 5 5 91 84 87 99 94 22 69 98 90 99 78 87 96 99 100 100 91 98 100 100 100 100 98 100 100 100 100
0 0 0 0 3 5 5 5 5 5 5 73 89 71 56 72 51 94 83 61 55 100 100 94 98 100 98 100 100 96 100 84 94 100 100 100 100 100 100 100 100 100 100
2 1 4 5 27 77 75 87 59 96 99 90 72 74 100 100 100 84 54 78 100 92 76 92 100 100 100 100 100 94 90 96 100 100 100 100 100 100 100 100 100 100 100
5 11 77 100 100 100 100 99 99 100 99 99 65 45 85 97 75 65 98 100 90 92 95 100 100 100 100 100 98 100 97 94 100 100 100 100 100 100 100 100 100 100 100
64 100 100 100 100 99 88 97 99 97 98 87 90 98 79 62 98 100 99 88 100 100 100 100 100 100 97 98 98 100 100 100 100 100 100 100 100 100 100 100 96 96 100
100 100 100 100 100 100 100 100 100 100 100 100 98 86 76 99 97 79 89 100 100 100 100 100 100 99 91 96 100 100 100 100 100 100 100 99 76 74 80 84 100 100 100
100 100 100 100 92 99 100 100 99 99 99 94 89 97 100 96 92 94 100 100 100 100 100 100 96 87 88 86 100 100 100 100 94 92 73 81 100 100 100 99 100 100 99
100 100 100 97 99 85 97 100 100 100 100 100 100 100 97 100 100 100 100 100 100 100 100 94 94 90 82 98 100 100 100 99 99 100 100 100 100 99 100 98 96 96 79